Regional Weather Roundup
Issued by NWS

Home | Current Version | Previous Version | Graphics & Text | Print | Product List | Glossary On
Versions: 1 2 3 4 5 6 7 8 9 10 11 12 13 14 15 16 17 18 19 20 21 22 23 24 25 26 27 28 29 30 31 32 33 34 35 36 37 38 39 40 41 42 43 44 45 46 47 48 49 50
000
ASUS45 KBOI 290110
RWRID

IDAHO REGIONAL WEATHER ROUNDUP
NATIONAL WEATHER SERVICE BOISE ID
700 PM MDT WED JUN 28 2017

NOTE: "FAIR" INDICATES FEW OR NO CLOUDS BELOW 12000 FEET
WITH NO SIGNIFICANT WEATHER AND/OR OBSTRUCTIONS TO VISIBILITY

IDZ012-014-290200-
SOUTHWEST IDAHO


CITY           SKY/WX    TMP DP  RH WIND       PRES   REMARKS
BOISE          SUNNY     83  26  12 N13G21    29.82F
CALDWELL       SUNNY     85  37  18 N8        29.80F
MOUNTAIN HOME  SUNNY     85  21   9 N22G29    29.81S
$$

IDZ016-017-290200-
SOUTHCENTRAL IDAHO


CITY           SKY/WX    TMP DP  RH WIND       PRES   REMARKS
BURLEY         SUNNY     77  40  26 W10G16    29.85S
JEROME         SUNNY     78  35  21 W15       29.86S
TWIN FALLS     MOSUNNY   79  37  22 NW16      29.86S
$$

IDZ019>023-290200-
SOUTHEAST IDAHO


CITY           SKY/WX    TMP DP  RH WIND       PRES   REMARKS
IDAHO FALLS    PTSUNNY   71  43  36 SW8       29.89S
POCATELLO      MOSUNNY   76  46  34 W10       29.87F
REXBURG        CLOUDY    66  43  43 S7        29.90F
$$

IDZ006-010-011-018-031-032-290200-
CENTRAL IDAHO MOUNTAINS


CITY           SKY/WX    TMP DP  RH WIND       PRES   REMARKS
MCCALL         MOSUNNY   71  31  22 W12       29.92S
STANLEY          N/A     67  16  14 W7        30.00S
SALMON         PTSUNNY   72  39  30 N12       29.81R
CHALLIS        MOSUNNY   74  24  15 NW13      29.86R
$$

IDZ002-004-006-007-026-290200-
NORTHERN IDAHO


CITY           SKY/WX    TMP DP  RH WIND       PRES   REMARKS
LEWISTON       SUNNY     82  36  19 NW18G24   29.81S
LOWELL           N/A     78  47  33 VRB3      29.78R
COEUR D`ALENE  PTSUNNY   75  44  33 N10       29.84R
MULLAN PASS    SUNNY     61  40  45 VRB6      29.98R
$$



USA.gov is the U.S. government's official web portal to all federal, state and local government web resources and services.